STARLINK-3935, 52549

Orbit data source: Space-Track

STARLINK-3935, 52549 is a payload satellite owned by SpaceX/Seattle (US) in LEO that was launched on Fri, 13 May 2022 UTC via an FALCON 9 launch vehicle from the Air Force Western Test Range (AFWTR). Payload-class satellites include a variety of spacecraft equipped with specific instruments for various scientific and technological missions. These include communications satellites like Starlink; space stations such as the ISS; scientific satellites like the Hubble; Earth observation satellites from companies like Planet Labs, Umbra, and HawkEye 360; GPS; miniature CubeSats for education and research; and military/defense satellites.

Loading next visibility...
Identifier
52549, 2022-051S
Orbit
LEO
Country
Flag of USUS
Related business
Manufacturer
SpaceX/Seattle
Mission
Operational Commercial Communications
Bus & Motor
STARLINK, Unknown motor
Mass
297 kg wet, ~275 kg dry
Launch date (UTC)
2022-05-13 (4 years ago)
Launch vehicle
FALCON 9
Launch site
Air Force Western Test Range (AFWTR)
Object type
Payload
Rocket body
Debris
Shape & HBR
Box + 1 Pan, 10.1 m
Radar Cross Section
13.562 m², Large (>1 m²)

Expand to show TLE details & history
Last TLE update: 3 days ago

TLE from 3 days ago
0 STARLINK-3935
1 52549U 22051S   26170.81915586 -.00000326  00000-0 -23945-5 0  9995
2 52549  53.1616  30.5347 0001420  87.8473 272.2681 15.08833713226866
Epoch: 2026-06-19T19:39Z
TLE epoch observation values (Epoch: 2026-06-19T19:39:35.066Z)
Latitude
-0.00002°
Longitude
-172.40408°
Altitude
540.615 km
Speed
7.593 km/s
True Right ascension
02h 02m 08s
True Declination
0° 00' 00"
Sunlit
Object was in daylight at epoch
Visualization orbit readout
Latitude
Unknown
Longitude
Unknown
Altitude
Unknown
Speed
Unknown
Apparent Right ascension
Unknown
Apparent Declination
Unknown
Sunlit
N/A
Visualization observer readout
Local Sidereal Time
21:33:32
Azimuth
Unknown
Elevation
Unknown
Doppler factor
Unknown
Orbital elements
Apogee altitude
540.999 km
Perigee altitude
539.034 km
Semi-major axis
6,918.153 km
Eccentricity
0.00014
Inclination
53.1616°
RAAN
30.5347°
Arg. of periapsis
87.8473°
True anomaly
272.25184°
Mean anomaly
272.2681°
Eccentric anomaly
272.25997°
Mean motion
3.77188 °/min
Orbital period
95.44 mins
BSTAR
-0.0000023945
Loading maneuver chart data...
Computing Atmospheric mass density...
Loading historical data...
Loading historical data...
Loading historical data...
Loading historical data...
Loading historical data...
Loading historical data...
Loading historical data...

Documentation

Showing up to 5 results
|